Home > Products > Valid Products > MTR

000
SAHW31 PHFO 012255
MTRITO
METAR PHTO 012253Z 14011KT 10SM BKN046 BKN065 28/19 A2994 RMK AO2
PRESFR SLP136 T02780189





000
SAHW31 PHFO 012255
MTRITO
METAR PHTO 012253Z 14011KT 10SM BKN046 BKN065 28/19 A2994 RMK AO2
PRESFR SLP136 T02780189




000
SAHW31 PHFO 012154
MTRITO
METAR PHTO 012153Z 14009G17KT 10SM FEW028 BKN047 BKN065 27/19 A2999
RMK AO2 SLP153 T02720194




000
SAHW31 PHFO 012055
MTRITO
METAR PHTO 012053Z 15007KT 10SM BKN045 BKN055 26/19 A3001 RMK AO2
SLP161 T02610189 50002




000
SAHW31 PHFO 012055
MTRITO
METAR PHTO 012053Z 15007KT 10SM BKN045 BKN055 26/19 A3001 RMK AO2
SLP161 T02610189 50002





000
SAHW31 PHFO 011954
MTRITO
METAR PHTO 011953Z 19005KT 10SM BKN049 26/19 A3001 RMK AO2 SLP162
T02560189




000
SAHW31 PHFO 011954
MTRITO
METAR PHTO 011953Z 19005KT 10SM BKN049 26/19 A3001 RMK AO2 SLP162
T02560189





000
SAHW31 PHFO 011855
MTRITO
METAR PHTO 011853Z 22004KT 10SM BKN050 24/19 A3001 RMK AO2 SLP160
T02390189





000
SAHW31 PHFO 011755
MTRITO
METAR PHTO 011753Z 23004KT 10SM OVC045 22/19 A3001 RMK AO2 RAE1657
SLP159 P0000 60000 T02220194 10222 20211 51011




000
SAHW31 PHFO 011755
MTRITO
METAR PHTO 011753Z 23004KT 10SM OVC045 22/19 A3001 RMK AO2 RAE1657
SLP159 P0000 60000 T02220194 10222 20211 51011





000
SAHW31 PHFO 011654
MTRITO
METAR PHTO 011653Z 19005KT 10SM -RA BKN043 OVC050 21/19 A3000 RMK
AO2 RAB46 SLP158 P0000 T02110189




000
SAHW31 PHFO 011654
MTRITO
METAR PHTO 011653Z 19005KT 10SM -RA BKN043 OVC050 21/19 A3000 RMK
AO2 RAB46 SLP158 P0000 T02110189





000
SAHW31 PHFO 011654
MTRITO
METAR PHTO 011653Z 19005KT 10SM -RA BKN043 OVC050 21/19 A3000 RMK
AO2 RAB46 SLP158 P0000 T02110189




000
SAHW31 PHFO 011654
MTRITO
METAR PHTO 011653Z 19005KT 10SM -RA BKN043 OVC050 21/19 A3000 RMK
AO2 RAB46 SLP158 P0000 T02110189





000
SAHW31 PHFO 011555
MTRITO
METAR PHTO 011553Z 21004KT 10SM OVC047 22/19 A2998 RMK AO2 RAB27E36
SLP152 P0000 T02170189




000
SAHW31 PHFO 011555
MTRITO
METAR PHTO 011553Z 21004KT 10SM OVC047 22/19 A2998 RMK AO2 RAB27E36
SLP152 P0000 T02170189





000
SAHW31 PHFO 011555
MTRITO
METAR PHTO 011553Z 21004KT 10SM OVC047 22/19 A2998 RMK AO2 RAB27E36
SLP152 P0000 T02170189




000
SAHW31 PHFO 011555
MTRITO
METAR PHTO 011553Z 21004KT 10SM OVC047 22/19 A2998 RMK AO2 RAB27E36
SLP152 P0000 T02170189





000
SAHW31 PHFO 011537
MTRITO
SPECI PHTO 011535Z 24003KT 10SM -RA SCT024 OVC044 22/19 A2998 RMK
AO2 RAB27 P0000 T02220189





000
SAHW31 PHFO 011527
MTRITO
SPECI PHTO 011525Z 16003KT 10SM BKN024 BKN035 OVC055 22/19 A2998 RMK
AO2 T02220189




000
SAHW31 PHFO 011527
MTRITO
SPECI PHTO 011525Z 16003KT 10SM BKN024 BKN035 OVC055 22/19 A2998 RMK
AO2 T02220189





000
SAHW31 PHFO 011455
MTRITO
METAR PHTO 011453Z 00000KT 10SM FEW050 OVC065 22/19 A2997 RMK AO2
SLP148 T02170189 55006




000
SAHW31 PHFO 011455
MTRITO
METAR PHTO 011453Z 00000KT 10SM FEW050 OVC065 22/19 A2997 RMK AO2
SLP148 T02170189 55006





000
SAHW31 PHFO 011355
MTRITO
METAR PHTO 011353Z 21004KT 10SM OVC065 22/19 A2996 RMK AO2 SLP143
T02170194




000
SAHW31 PHFO 011355
MTRITO
METAR PHTO 011353Z 21004KT 10SM OVC065 22/19 A2996 RMK AO2 SLP143
T02170194





000
SAHW31 PHFO 011254
MTRITO
METAR PHTO 011253Z 21003KT 10SM OVC060 22/18 A2997 RMK AO2 SLP147
T02220183




000
SAHW31 PHFO 011155
MTRITO
METAR PHTO 011153Z 21004KT 10SM OVC060 22/19 A2999 RMK AO2 SLP154
T02220189 10239 20211 58012





000
SAHW31 PHFO 011055
MTRITO
METAR PHTO 011053Z 00000KT 10SM FEW029 OVC049 22/19 A3002 RMK AO2
SLP163 T02220194




000
SAHW31 PHFO 011055
MTRITO
METAR PHTO 011053Z 00000KT 10SM FEW029 OVC049 22/19 A3002 RMK AO2
SLP163 T02220194





000
SAHW31 PHFO 010955
MTRITO
METAR PHTO 010953Z AUTO 00000KT 10SM FEW018 SCT041 22/19 A3002 RMK
AO2 SLP163 T02170194 402890211 TSNO





000
SAHW31 PHFO 010955
MTRITO
METAR PHTO 010953Z AUTO 00000KT 10SM FEW018 SCT041 22/19 A3002 RMK
AO2 SLP163 T02170194 402890211 TSNO




000
SAHW31 PHFO 010855
MTRITO
METAR PHTO 010853Z AUTO 21005KT 10SM OVC060 22/20 A3003 RMK AO2
SLP166 T02220200 50006 TSNO




000
SAHW31 PHFO 010855
MTRITO
METAR PHTO 010853Z AUTO 21005KT 10SM OVC060 22/20 A3003 RMK AO2
SLP166 T02220200 50006 TSNO





000
SAHW31 PHFO 010755
MTRITO
METAR PHTO 010753Z 26003KT 10SM FEW048 23/20 A3003 RMK AO2 SLP168
T02280200




000
SAHW31 PHFO 010654
MTRITO
METAR PHTO 010653Z 00000KT 10SM OVC060 23/21 A3002 RMK AO2 SLP165
T02330206




000
SAHW31 PHFO 010654
MTRITO
METAR PHTO 010653Z 00000KT 10SM OVC060 23/21 A3002 RMK AO2 SLP165
T02330206




000
SAHW31 PHFO 010654
MTRITO
METAR PHTO 010653Z 00000KT 10SM OVC060 23/21 A3002 RMK AO2 SLP165
T02330206





000
SAHW31 PHFO 010554
MTRITO
METAR PHTO 010553Z 00000KT 10SM SCT060 OVC080 24/21 A3001 RMK AO2
SLP160 T02390206 10289 20239 53020




000
SAHW31 PHFO 010554
MTRITO
METAR PHTO 010553Z 00000KT 10SM SCT060 OVC080 24/21 A3001 RMK AO2
SLP160 T02390206 10289 20239 53020




000
SAHW31 PHFO 010554
MTRITO
METAR PHTO 010553Z 00000KT 10SM SCT060 OVC080 24/21 A3001 RMK AO2
SLP160 T02390206 10289 20239 53020





000
SAHW31 PHFO 010554
MTRITO
METAR PHTO 010553Z 00000KT 10SM SCT060 OVC080 24/21 A3001 RMK AO2
SLP160 T02390206 10289 20239 53020





000
SAHW31 PHFO 010454
MTRITO
METAR PHTO 010453Z 00000KT 10SM OVC060 24/21 A2998 RMK AO2 SLP151
T02440206





000
SAHW31 PHFO 010454
MTRITO
METAR PHTO 010453Z 00000KT 10SM OVC060 24/21 A2998 RMK AO2 SLP151
T02440206




000
SAHW31 PHFO 010454
MTRITO
METAR PHTO 010453Z 00000KT 10SM OVC060 24/21 A2998 RMK AO2 SLP151
T02440206





000
SAHW31 PHFO 010454
MTRITO
METAR PHTO 010453Z 00000KT 10SM OVC060 24/21 A2998 RMK AO2 SLP151
T02440206




000
SAHW31 PHFO 010354
MTRITO
METAR PHTO 010353Z 12004KT 10SM FEW070 25/21 A2997 RMK AO2 SLP147
T02500206




000
SAHW31 PHFO 010354
MTRITO
METAR PHTO 010353Z 12004KT 10SM FEW070 25/21 A2997 RMK AO2 SLP147
T02500206





000
SAHW31 PHFO 010354
MTRITO
METAR PHTO 010353Z 12004KT 10SM FEW070 25/21 A2997 RMK AO2 SLP147
T02500206




000
SAHW31 PHFO 010354
MTRITO
METAR PHTO 010353Z 12004KT 10SM FEW070 25/21 A2997 RMK AO2 SLP147
T02500206





000
SAHW31 PHFO 010255
MTRITO
METAR PHTO 010253Z 12011KT 10SM BKN075 OVC090 26/20 A2995 RMK AO2
SLP140 T02610200 53001




000
SAHW31 PHFO 010255
MTRITO
METAR PHTO 010253Z 12011KT 10SM BKN075 OVC090 26/20 A2995 RMK AO2
SLP140 T02610200 53001





000
SAHW31 PHFO 010255
MTRITO
METAR PHTO 010253Z 12011KT 10SM BKN075 OVC090 26/20 A2995 RMK AO2
SLP140 T02610200 53001





000
SAHW31 PHFO 010255
MTRITO
METAR PHTO 010253Z 12011KT 10SM BKN075 OVC090 26/20 A2995 RMK AO2
SLP140 T02610200 53001




000
SAHW31 PHFO 010155
MTRITO
METAR PHTO 010153Z 11012KT 10SM SCT046 BKN065 BKN090 26/20 A2994 RMK
AO2 SLP136 T02560200





000
SAHW31 PHFO 010155
MTRITO
METAR PHTO 010153Z 11012KT 10SM SCT046 BKN065 BKN090 26/20 A2994 RMK
AO2 SLP136 T02560200




000
SAHW31 PHFO 010155
MTRITO
METAR PHTO 010153Z 11012KT 10SM SCT046 BKN065 BKN090 26/20 A2994 RMK
AO2 SLP136 T02560200




000
SAHW31 PHFO 010155
MTRITO
METAR PHTO 010153Z 11012KT 10SM SCT046 BKN065 BKN090 26/20 A2994 RMK
AO2 SLP136 T02560200





000
SAHW31 PHFO 010055
MTRITO
METAR PHTO 010053Z 11014KT 10SM BKN042 27/21 A2994 RMK AO2 SLP135
T02670206




000
SAHW31 PHFO 010055
MTRITO
METAR PHTO 010053Z 11014KT 10SM BKN042 27/21 A2994 RMK AO2 SLP135
T02670206





000
SAHW31 PHFO 010055
MTRITO
METAR PHTO 010053Z 11014KT 10SM BKN042 27/21 A2994 RMK AO2 SLP135
T02670206




000
SAHW31 PHFO 312355
MTRITO
METAR PHTO 312353Z 09014KT 10SM FEW028 BKN042 28/21 A2994 RMK AO2
SLP138 T02830206 10289 20217 56023




000
SAHW31 PHFO 312355
MTRITO
METAR PHTO 312353Z 09014KT 10SM FEW028 BKN042 28/21 A2994 RMK AO2
SLP138 T02830206 10289 20217 56023





000
SAHW31 PHFO 312254
MTRITO
METAR PHTO 312253Z 12013G20KT 10SM FEW035 BKN060 28/19 A2996 RMK AO2
SLP145 T02830194





000
SAHW31 PHFO 312254
MTRITO
METAR PHTO 312253Z 12013G20KT 10SM FEW035 BKN060 28/19 A2996 RMK AO2
SLP145 T02830194




000
SAHW31 PHFO 312154
MTRITO
METAR PHTO 312153Z 11009KT 10SM BKN060 28/19 A2999 RMK AO2 SLP152
T02780194





000
SAHW31 PHFO 312154
MTRITO
METAR PHTO 312153Z 11009KT 10SM BKN060 28/19 A2999 RMK AO2 SLP152
T02780194




000
SAHW31 PHFO 312154
MTRITO
METAR PHTO 312153Z 11009KT 10SM BKN060 28/19 A2999 RMK AO2 SLP152
T02780194





000
SAHW31 PHFO 312154
MTRITO
METAR PHTO 312153Z 11009KT 10SM BKN060 28/19 A2999 RMK AO2 SLP152
T02780194




000
SAHW31 PHFO 312054
MTRITO
METAR PHTO 312053Z 19006KT 10SM BKN055 27/19 A3001 RMK AO2 SLP162
T02720194 58008




000
SAHW31 PHFO 312054
MTRITO
METAR PHTO 312053Z 19006KT 10SM BKN055 27/19 A3001 RMK AO2 SLP162
T02720194 58008





000
SAHW31 PHFO 311954
MTRITO
METAR PHTO 311953Z 20004KT 10SM BKN060 25/20 A3004 RMK AO2 SLP172
T02500200





000
SAHW31 PHFO 311954
MTRITO
METAR PHTO 311953Z 20004KT 10SM BKN060 25/20 A3004 RMK AO2 SLP172
T02500200




000
SAHW31 PHFO 311855
MTRITO
METAR PHTO 311853Z 17003KT 10SM SCT020 BKN055 23/19 A3005 RMK AO2
SLP173 T02330194





000
SAHW31 PHFO 311855
MTRITO
METAR PHTO 311853Z 17003KT 10SM SCT020 BKN055 23/19 A3005 RMK AO2
SLP173 T02330194




000
SAHW31 PHFO 311755
MTRITO
METAR PHTO 311753Z 16005KT 10SM FEW020 SCT037 OVC050 22/18 A3004 RMK
AO2 SLP170 60000 T02170178 10217 20211 52018




000
SAHW31 PHFO 311755
MTRITO
METAR PHTO 311753Z 16005KT 10SM FEW020 SCT037 OVC050 22/18 A3004 RMK
AO2 SLP170 60000 T02170178 10217 20211 52018





000
SAHW31 PHFO 311655
MTRITO
METAR PHTO 311653Z 22004KT 10SM FEW020 BKN039 OVC065 21/18 A3002 RMK
AO2 SLP163 T02110183




000
SAHW31 PHFO 311655
MTRITO
METAR PHTO 311653Z 22004KT 10SM FEW020 BKN039 OVC065 21/18 A3002 RMK
AO2 SLP163 T02110183





000
SAHW31 PHFO 311555
MTRITO
METAR PHTO 311553Z 22004KT 10SM BKN042 OVC065 21/19 A3000 RMK AO2
RAB32E42 SLP158 P0000 T02110189




000
SAHW31 PHFO 311454
MTRITO
METAR PHTO 311453Z 00000KT 10SM OVC075 22/19 A2998 RMK AO2 SLP152
T02170189 53001




000
SAHW31 PHFO 311454
MTRITO
METAR PHTO 311453Z 00000KT 10SM OVC075 22/19 A2998 RMK AO2 SLP152
T02170189 53001





000
SAHW31 PHFO 311355
MTRITO
METAR PHTO 311353Z 23003KT 10SM BKN043 OVC070 22/19 A2997 RMK AO2
SLP148 T02170194





000
SAHW31 PHFO 311355
MTRITO
METAR PHTO 311353Z 23003KT 10SM BKN043 OVC070 22/19 A2997 RMK AO2
SLP148 T02170194




000
SAHW31 PHFO 311254
MTRITO
METAR PHTO 311253Z 00000KT 10SM OVC041 22/19 A2997 RMK AO2 SLP148
T02170194




000
SAHW31 PHFO 311254
MTRITO
METAR PHTO 311253Z 00000KT 10SM OVC041 22/19 A2997 RMK AO2 SLP148
T02170194





000
SAHW31 PHFO 311154
MTRITO
METAR PHTO 311153Z 24003KT 10SM BKN036 BKN045 OVC060 22/19 A2998 RMK
AO2 SLP151 T02170194 10233 20217 58008




000
SAHW31 PHFO 311154
MTRITO
METAR PHTO 311153Z 24003KT 10SM BKN036 BKN045 OVC060 22/19 A2998 RMK
AO2 SLP151 T02170194 10233 20217 58008





000
SAHW31 PHFO 311137
MTRITO
SPECI PHTO 311136Z 23004KT 10SM SCT020 OVC034 22/19 A2999 RMK AO2
T02220194




000
SAHW31 PHFO 311137
MTRITO
SPECI PHTO 311136Z 23004KT 10SM SCT020 OVC034 22/19 A2999 RMK AO2
T02220194





000
SAHW31 PHFO 311105
MTRITO
SPECI PHTO 311104Z 23004KT 10SM BKN017 OVC043 22/19 A2999 RMK AO2
T02220189




000
SAHW31 PHFO 311105
MTRITO
SPECI PHTO 311104Z 23004KT 10SM BKN017 OVC043 22/19 A2999 RMK AO2
T02220189





000
SAHW31 PHFO 311055
MTRITO
METAR PHTO 311053Z 23003KT 10SM SCT017 SCT030 OVC045 22/19 A3000 RMK
AO2 SLP156 T02220189




000
SAHW31 PHFO 311055
MTRITO
METAR PHTO 311053Z 23003KT 10SM SCT017 SCT030 OVC045 22/19 A3000 RMK
AO2 SLP156 T02220189





000
SAHW31 PHFO 311038
MTRITO
SPECI PHTO 311036Z 23003KT 10SM SCT025 BKN030 BKN043 22/19 A3000 RMK
AO2 T02220194




000
SAHW31 PHFO 311038
MTRITO
SPECI PHTO 311036Z 23003KT 10SM SCT025 BKN030 BKN043 22/19 A3000 RMK
AO2 T02220194





000
SAHW31 PHFO 310955
MTRITO
METAR PHTO 310953Z AUTO 24003KT 10SM BKN023 OVC036 22/19 A3000 RMK
AO2 SLP157 T02220194 402780178 TSNO




000
SAHW31 PHFO 310955
MTRITO
METAR PHTO 310953Z AUTO 24003KT 10SM BKN023 OVC036 22/19 A3000 RMK
AO2 SLP157 T02220194 402780178 TSNO





000
SAHW31 PHFO 310921
MTRITO
SPECI PHTO 310920Z AUTO 00000KT 10SM BKN023 OVC039 23/19 A3000 RMK
AO2 T02280194 TSNO




000
SAHW31 PHFO 310921
MTRITO
SPECI PHTO 310920Z AUTO 00000KT 10SM BKN023 OVC039 23/19 A3000 RMK
AO2 T02280194 TSNO





000
SAHW31 PHFO 310855
MTRITO
METAR PHTO 310853Z AUTO 00000KT 10SM FEW021 OVC041 23/19 A3000 RMK
AO2 SLP159 T02280194 53002 TSNO




000
SAHW31 PHFO 310855
MTRITO
METAR PHTO 310853Z AUTO 00000KT 10SM FEW021 OVC041 23/19 A3000 RMK
AO2 SLP159 T02280194 53002 TSNO





000
SAHW31 PHFO 310820
MTRITO
SPECI PHTO 310819Z AUTO 24003KT 10SM FEW022 BKN032 OVC065 23/19
A3000 RMK AO2 T02280194 TSNO





000
SAHW31 PHFO 310820
MTRITO
SPECI PHTO 310819Z AUTO 24003KT 10SM FEW022 BKN032 OVC065 23/19
A3000 RMK AO2 T02280194 TSNO




000
SAHW31 PHFO 310754
MTRITO
METAR PHTO 310753Z 20003KT 10SM BKN022 BKN029 OVC042 23/20 A3000 RMK
AO2 SLP157 T02280200




000
SAHW31 PHFO 310754
MTRITO
METAR PHTO 310753Z 20003KT 10SM BKN022 BKN029 OVC042 23/20 A3000 RMK
AO2 SLP157 T02280200





000
SAHW31 PHFO 310749
MTRITO
SPECI PHTO 310748Z 19003KT 10SM SCT022 BKN029 OVC042 23/20 A3000 RMK
AO2




000
SAHW31 PHFO 310749
MTRITO
SPECI PHTO 310748Z 19003KT 10SM SCT022 BKN029 OVC042 23/20 A3000 RMK
AO2





000
SAHW31 PHFO 310726
MTRITO
SPECI PHTO 310725Z 00000KT 10SM SCT025 SCT030 OVC042 23/20 A3000 RMK
AO2 T02280200




000
SAHW31 PHFO 310654
MTRITO
METAR PHTO 310653Z 00000KT 10SM BKN025 OVC034 23/21 A3000 RMK AO2
SLP157 T02280206





000
SAHW31 PHFO 310654
MTRITO
METAR PHTO 310653Z 00000KT 10SM BKN025 OVC034 23/21 A3000 RMK AO2
SLP157 T02280206




000
SAHW31 PHFO 310650
MTRITO
SPECI PHTO 310649Z 13003KT 10SM BKN025 OVC034 23/20 A3000 RMK AO2




000
SAHW31 PHFO 310650
MTRITO
SPECI PHTO 310649Z 13003KT 10SM BKN025 OVC034 23/20 A3000 RMK AO2





000
SAHW31 PHFO 310555
MTRITO
METAR PHTO 310553Z 12003KT 10SM FEW027 OVC037 23/20 A2998 RMK AO2
SLP151 T02280200 10261 20228 51012




000
SAHW31 PHFO 310555
MTRITO
METAR PHTO 310553Z 12003KT 10SM FEW027 OVC037 23/20 A2998 RMK AO2
SLP151 T02280200 10261 20228 51012





000
SAHW31 PHFO 310549
MTRITO
SPECI PHTO 310548Z 12003KT 10SM SCT027 OVC037 23/20 A2998 RMK AO2





000
SAHW31 PHFO 310549
MTRITO
SPECI PHTO 310548Z 12003KT 10SM SCT027 OVC037 23/20 A2998 RMK AO2




000
SAHW31 PHFO 310537
MTRITO
SPECI PHTO 310535Z 19004KT 10SM BKN027 OVC035 23/20 A2997 RMK AO2
T02330200




000
SAHW31 PHFO 310455
MTRITO
METAR PHTO 310453Z 00000KT 10SM OVC030 23/20 A2996 RMK AO2 SLP144
T02330200




000
SAHW31 PHFO 310455
MTRITO
METAR PHTO 310453Z 00000KT 10SM OVC030 23/20 A2996 RMK AO2 SLP144
T02330200





000
SAHW31 PHFO 310407
MTRITO
SPECI PHTO 310406Z 13003KT 10SM BKN031 OVC041 24/20 A2995 RMK AO2
T02390200





000
SAHW31 PHFO 310407
MTRITO
SPECI PHTO 310406Z 13003KT 10SM BKN031 OVC041 24/20 A2995 RMK AO2
T02390200




000
SAHW31 PHFO 310354
MTRITO
METAR PHTO 310353Z 15003KT 10SM OVC029 24/20 A2995 RMK AO2 SLP139
T02390200





000
SAHW31 PHFO 310354
MTRITO
METAR PHTO 310353Z 15003KT 10SM OVC029 24/20 A2995 RMK AO2 SLP139
T02390200




000
SAHW31 PHFO 310345
MTRITO
SPECI PHTO 310344Z 14003KT 10SM OVC029 24/19 A2995 RMK AO2 T02440194





000
SAHW31 PHFO 310255
MTRITO
METAR PHTO 310253Z 01003KT 10SM FEW028 BKN040 OVC060 25/19 A2994 RMK
AO2 SLP136 T02500189 53004




000
SAHW31 PHFO 310255
MTRITO
METAR PHTO 310253Z 01003KT 10SM FEW028 BKN040 OVC060 25/19 A2994 RMK
AO2 SLP136 T02500189 53004





000
SAHW31 PHFO 310155
MTRITO
METAR PHTO 310153Z 01006KT 10SM OVC050 25/19 A2993 RMK AO2 SLP132
T02500189




000
SAHW31 PHFO 310155
MTRITO
METAR PHTO 310153Z 01006KT 10SM OVC050 25/19 A2993 RMK AO2 SLP132
T02500189





000
SAHW31 PHFO 310055
MTRITO
METAR PHTO 310053Z 01005KT 10SM OVC041 26/19 A2992 RMK AO2 SLP129
T02560189




000
SAHW31 PHFO 310055
MTRITO
METAR PHTO 310053Z 01005KT 10SM OVC041 26/19 A2992 RMK AO2 SLP129
T02560189





000
SAHW31 PHFO 302354
MTRITO
METAR PHTO 302353Z 05007KT 10SM FEW049 BKN055 26/19 A2992 RMK AO2
SLP131 T02560189 10278 20200 58014




000
SAHW31 PHFO 302354
MTRITO
METAR PHTO 302353Z 05007KT 10SM FEW049 BKN055 26/19 A2992 RMK AO2
SLP131 T02560189 10278 20200 58014





000
SAHW31 PHFO 302255
MTRITO
METAR PHTO 302253Z 02006KT 10SM SCT049 OVC055 27/18 A2994 RMK AO2
SLP135 T02720183





000
SAHW31 PHFO 302255
MTRITO
METAR PHTO 302253Z 02006KT 10SM SCT049 OVC055 27/18 A2994 RMK AO2
SLP135 T02720183




000
SAHW31 PHFO 302154
MTRITO
METAR PHTO 302153Z 03006KT 10SM BKN048 26/17 A2995 RMK AO2 SLP142
T02610172





000
SAHW31 PHFO 302154
MTRITO
METAR PHTO 302153Z 03006KT 10SM BKN048 26/17 A2995 RMK AO2 SLP142
T02610172




000
SAHW31 PHFO 302054
MTRITO
METAR PHTO 302053Z 35007KT 10SM FEW055 28/17 A2997 RMK AO2 SLP146
T02780167 50003





000
SAHW31 PHFO 302054
MTRITO
METAR PHTO 302053Z 35007KT 10SM FEW055 28/17 A2997 RMK AO2 SLP146
T02780167 50003




000
SAHW31 PHFO 301955
MTRITO
METAR PHTO 301953Z 00000KT 10SM SCT055 27/16 A2997 RMK AO2 SLP148
T02720161




000
SAHW31 PHFO 301955
MTRITO
METAR PHTO 301953Z 00000KT 10SM SCT055 27/16 A2997 RMK AO2 SLP148
T02720161





000
SAHW31 PHFO 301855
MTRITO
METAR PHTO 301853Z 00000KT 10SM SCT055 23/14 A2996 RMK AO2 SLP145
T02280139




000
SAHW31 PHFO 301855
MTRITO
METAR PHTO 301853Z 00000KT 10SM SCT055 23/14 A2996 RMK AO2 SLP145
T02280139





000
SAHW31 PHFO 301755
MTRITO
METAR PHTO 301753Z 24006KT 10SM BKN055 20/13 A2996 RMK AO2 SLP142
T02000128 10200 20178 51015




000
SAHW31 PHFO 301755
MTRITO
METAR PHTO 301753Z 24006KT 10SM BKN055 20/13 A2996 RMK AO2 SLP142
T02000128 10200 20178 51015





000
SAHW31 PHFO 301655
MTRITO
METAR PHTO 301653Z 23005KT 10SM BKN055 19/13 A2994 RMK AO2 SLP138
T01890128




000
SAHW31 PHFO 301655
MTRITO
METAR PHTO 301653Z 23005KT 10SM BKN055 19/13 A2994 RMK AO2 SLP138
T01890128





000
SAHW31 PHFO 301555
MTRITO
METAR PHTO 301553Z 24008KT 10SM BKN055 19/13 A2993 RMK AO2 SLP134
T01890133




000
SAHW31 PHFO 301455
MTRITO
METAR PHTO 301453Z 24007KT 10SM SCT060 18/14 A2991 RMK AO2 SLP127
T01830139 52001




000
SAHW31 PHFO 301455
MTRITO
METAR PHTO 301453Z 24007KT 10SM SCT060 18/14 A2991 RMK AO2 SLP127
T01830139 52001





000
SAHW31 PHFO 301355
MTRITO
METAR PHTO 301353Z 25006KT 10SM FEW055 18/13 A2991 RMK AO2 SLP127
T01830133




000
SAHW31 PHFO 301355
MTRITO
METAR PHTO 301353Z 25006KT 10SM FEW055 18/13 A2991 RMK AO2 SLP127
T01830133





000
SAHW31 PHFO 301255
MTRITO
METAR PHTO 301253Z 26005KT 10SM CLR 18/14 A2991 RMK AO2 SLP126
T01780144




000
SAHW31 PHFO 301255
MTRITO
METAR PHTO 301253Z 26005KT 10SM CLR 18/14 A2991 RMK AO2 SLP126
T01780144





000
SAHW31 PHFO 301155
MTRITO
METAR PHTO 301153Z 00000KT 10SM CLR 18/14 A2991 RMK AO2 SLP126
T01830144 10217 20183 51003




000
SAHW31 PHFO 301155
MTRITO
METAR PHTO 301153Z 00000KT 10SM CLR 18/14 A2991 RMK AO2 SLP126
T01830144 10217 20183 51003





000
SAHW31 PHFO 301055
MTRITO
METAR PHTO 301053Z 22006KT 10SM CLR 19/15 A2991 RMK AO2 SLP125
T01940150




000
SAHW31 PHFO 300954
MTRITO
METAR PHTO 300953Z AUTO 22005KT 10SM CLR 19/16 A2991 RMK AO2 SLP127
T01890156 403060178 TSNO




000
SAHW31 PHFO 300954
MTRITO
METAR PHTO 300953Z AUTO 22005KT 10SM CLR 19/16 A2991 RMK AO2 SLP127
T01890156 403060178 TSNO





000
SAHW31 PHFO 300855
MTRITO
METAR PHTO 300853Z AUTO 23005KT 10SM CLR 19/16 A2990 RMK AO2 SLP123
T01940161 53003 TSNO





000
SAHW31 PHFO 300855
MTRITO
METAR PHTO 300853Z AUTO 23005KT 10SM CLR 19/16 A2990 RMK AO2 SLP123
T01940161 53003 TSNO




000
SAHW31 PHFO 300808
MTRITO
SPECI PHTO 300807Z AUTO 20006KT 10SM SCT003 19/17 A2989 RMK AO2
T01940167 TSNO




000
SAHW31 PHFO 300755
MTRITO
METAR PHTO 300753Z 19006KT 10SM CLR 19/17 A2989 RMK AO2 SLP119
T01940172




000
SAHW31 PHFO 300755
MTRITO
METAR PHTO 300753Z 19006KT 10SM CLR 19/17 A2989 RMK AO2 SLP119
T01940172





000
SAHW31 PHFO 300654
MTRITO
METAR PHTO 300653Z 00000KT 10SM CLR 20/18 A2989 RMK AO2 SLP121
T02000183




000
SAHW31 PHFO 300555
MTRITO
METAR PHTO 300553Z 20004KT 10SM CLR 22/19 A2989 RMK AO2 SLP120
T02170189 10278 20217 50001




000
SAHW31 PHFO 300454
MTRITO
METAR PHTO 300453Z 22004KT 10SM BKN050 23/19 A2989 RMK AO2 SLP120
T02330189




000
SAHW31 PHFO 300454
MTRITO
METAR PHTO 300453Z 22004KT 10SM BKN050 23/19 A2989 RMK AO2 SLP120
T02330189





000
SAHW31 PHFO 300355
MTRITO
METAR PHTO 300353Z 01005KT 10SM OVC050 24/18 A2989 RMK AO2 SLP119
T02440183





000
SAHW31 PHFO 300355
MTRITO
METAR PHTO 300353Z 01005KT 10SM OVC050 24/18 A2989 RMK AO2 SLP119
T02440183




000
SAHW31 PHFO 300255
MTRITO
METAR PHTO 300253Z 01006KT 10SM OVC034 25/19 A2988 RMK AO2 SLP118
T02500189 51014




000
SAHW31 PHFO 300255
MTRITO
METAR PHTO 300253Z 01006KT 10SM OVC034 25/19 A2988 RMK AO2 SLP118
T02500189 51014





000
SAHW31 PHFO 300155
MTRITO
METAR PHTO 300153Z 36011KT 10SM BKN030 OVC065 25/18 A2987 RMK AO2
SLP114 T02500183




000
SAHW31 PHFO 300155
MTRITO
METAR PHTO 300153Z 36011KT 10SM BKN030 OVC065 25/18 A2987 RMK AO2
SLP114 T02500183





000
SAHW31 PHFO 300120
MTRITO
SPECI PHTO 300118Z 36014G20KT 10SM SCT026 SCT034 BKN065 26/19 A2987
RMK AO2 T02560189




000
SAHW31 PHFO 300120
MTRITO
SPECI PHTO 300118Z 36014G20KT 10SM SCT026 SCT034 BKN065 26/19 A2987
RMK AO2 T02560189





000
SAHW31 PHFO 300108
MTRITO
SPECI PHTO 300107Z 36015G22KT 10SM BKN026 BKN034 26/18 A2986 RMK AO2
T02560183





000
SAHW31 PHFO 300108
MTRITO
SPECI PHTO 300107Z 36015G22KT 10SM BKN026 BKN034 26/18 A2986 RMK AO2
T02560183




000
SAHW31 PHFO 300054
MTRITO
METAR PHTO 300053Z 01013G22KT 10SM FEW026 27/18 A2986 RMK AO2 PK WND
36028/0034 SLP110 T02670183




000
SAHW31 PHFO 300054
MTRITO
METAR PHTO 300053Z 01013G22KT 10SM FEW026 27/18 A2986 RMK AO2 PK WND
36028/0034 SLP110 T02670183





000
SAHW31 PHFO 292354
MTRITO
METAR PHTO 292353Z 02013KT 10SM SCT055 27/19 A2984 RMK AO2 PK WND
35026/2352 WSHFT 2310 SLP104 T02720194 10306 20200 56035





000
SAHW31 PHFO 292354
MTRITO
METAR PHTO 292353Z 02013KT 10SM SCT055 27/19 A2984 RMK AO2 PK WND
35026/2352 WSHFT 2310 SLP104 T02720194 10306 20200 56035




000
SAHW31 PHFO 292332
MTRITO
SPECI PHTO 292330Z 08017G20KT 10SM FEW055 30/18 A2985 RMK AO2 WSHFT
2310 T03000178




000
SAHW31 PHFO 292332
MTRITO
SPECI PHTO 292330Z 08017G20KT 10SM FEW055 30/18 A2985 RMK AO2 WSHFT
2310 T03000178





    US Dept of Commerce
    National Oceanic and Atmospheric Administration
    National Weather Service
    1325 East West Highway
    Silver Spring, MD 20910
    Page Author: NWS Internet Services Team
Disclaimer
Information Quality
Credits
Glossary
Privacy Policy
Freedom of Information Act (FOIA)
About Us
Career Opportunities